DateTimeUTC,F1_A11,F1_S11,BsB_S11,BsG_S11,BsR_S11,BbsB_S11,BbsG_S11,BbsR_S11,BaB_A11,BaG_A11,BaR_A11,Tu_S11,T_S11,Uu_S11,U_S11,P_S11,T1_A11
2021-08-02T11:00:00Z,00000200,20000000,,,,,,,-000.16,0000.58,-000.24,18.2,24.8,12.4,08.3,0673.2,31.0
2021-08-02T11:01:00Z,00000200,20000000,,,,,,,-000.02,-000.43,0000.18,18.2,24.8,12.4,08.3,0673.2,31.0
2021-08-02T11:02:00Z,00000200,20000000,,,,,,,0000.23,0000.32,0000.03,18.2,24.8,12.5,08.3,0673.2,31.0
2021-08-02T11:03:00Z,00000200,60000000,,,,,,,0001.30,0001.15,0001.28,18.2,24.9,12.5,08.3,0673.2,31.0
2021-08-02T11:04:00Z,00000200,40000000,0007.32,0005.41,0002.98,0001.57,0001.46,0000.36,0001.92,0001.90,0000.91,18.4,24.7,12.6,08.5,0674.1,31.0
2021-08-02T11:05:00Z,00000200,00000000,0006.92,0005.79,0003.25,0001.23,0000.72,0000.59,0001.42,0001.41,0001.29,18.4,24.7,12.5,08.6,0674.2,31.0
2021-08-02T11:06:00Z,00000200,00000000,0007.53,0005.87,0003.13,0000.50,0001.05,0000.59,0001.90,0001.75,0001.57,18.4,24.7,12.5,08.6,0674.2,31.0
2021-08-02T11:07:00Z,00000200,00000000,0007.81,0005.19,0003.23,0001.00,0000.56,0000.72,0001.42,0000.98,0000.92,18.5,24.7,12.5,08.5,0674.2,31.0
2021-08-02T11:08:00Z,00000200,00000000,0008.44,0005.86,0003.70,0001.05,0000.80,0000.69,0001.65,0001.50,0001.09,18.5,24.7,12.5,08.5,0674.2,31.0
2021-08-02T11:09:00Z,00000200,00000000,0007.06,0005.84,0003.36,0001.42,0000.73,0000.43,0001.89,0001.48,0001.08,18.5,24.7,12.4,08.5,0674.2,31.0
2021-08-02T11:10:00Z,00000200,00000000,0007.71,0005.63,0003.38,0001.21,0000.57,0000.11,0001.51,0001.77,0001.30,18.5,24.7,12.2,08.4,0674.3,31.0
2021-08-02T11:11:00Z,00000200,00000000,0008.52,0005.57,0003.19,0001.29,0000.44,0000.63,0001.83,0001.50,0000.89,18.5,24.7,12.2,08.3,0674.3,31.0
2021-08-02T11:12:00Z,00000200,00000000,0007.24,0005.41,0002.79,0000.53,0000.82,0000.19,0001.44,0001.54,0001.23,18.5,24.7,12.2,08.3,0674.3,31.0
2021-08-02T11:13:00Z,00000200,00000000,0007.20,0005.40,0003.41,0000.95,0000.61,0000.45,0001.77,0001.67,0001.31,18.5,24.7,12.1,08.3,0674.3,31.0
2021-08-02T11:14:00Z,00000200,00000000,0007.81,0005.38,0003.10,0001.39,0000.95,0000.51,0001.93,0001.38,0001.24,18.5,24.7,12.0,08.2,0674.3,31.0
2021-08-02T11:15:00Z,00000200,00000000,0006.96,0005.48,0003.17,0001.26,0000.86,0000.32,0001.85,0001.95,0001.04,18.5,24.7,11.8,08.1,0674.3,31.0
2021-08-02T11:16:00Z,00000200,00000000,0008.29,0005.75,0002.99,0001.10,0000.58,0000.42,0001.49,0001.01,0001.28,18.5,24.7,11.8,08.1,0674.3,31.0
2021-08-02T11:17:00Z,00000200,00000000,0008.50,0006.06,0003.49,0001.20,0000.71,0000.23,0001.44,0001.60,0001.02,18.5,24.7,11.6,08.0,0674.3,31.0
2021-08-02T11:18:00Z,00000200,00000000,0008.10,0005.53,0003.55,0000.95,0000.76,0000.62,0001.19,0001.05,0000.86,18.6,24.7,11.4,07.8,0674.3,31.0
2021-08-02T11:19:00Z,00000200,00000000,0008.19,0005.48,0003.39,0001.18,0000.75,0000.83,0001.80,0001.69,0000.70,18.6,24.7,11.2,07.7,0674.3,31.0
2021-08-02T11:20:00Z,00000200,00000000,0007.96,0005.81,0003.19,0000.89,0000.83,0000.72,0001.56,0001.17,0001.26,18.6,24.7,11.2,07.7,0674.3,31.0
2021-08-02T11:21:00Z,00000200,00000000,0008.36,0005.57,0003.31,0001.20,0000.87,0000.62,0001.43,0001.49,0000.67,18.6,24.7,11.0,07.6,0674.3,31.0
2021-08-02T11:22:00Z,00000200,00000000,0007.55,0005.68,0003.87,0001.24,0000.87,0000.52,0001.21,0001.20,0001.11,18.6,24.7,10.7,07.4,0674.3,31.0
2021-08-02T11:23:00Z,00000200,00000000,0007.34,0005.68,0003.37,0001.29,0000.69,0000.38,0001.85,0001.38,0000.77,18.6,24.7,10.5,07.2,0674.3,31.0
2021-08-02T11:24:00Z,00000200,00000000,0008.06,0005.44,0003.47,0001.90,0000.92,0000.55,0001.57,0001.09,0001.19,18.6,24.8,10.3,07.1,0674.3,31.0
2021-08-02T11:25:00Z,00000200,00000000,0008.43,0005.73,0003.60,0001.28,0000.89,0000.41,0001.64,0002.03,0001.33,18.6,24.7,10.2,07.0,0674.3,31.0
2021-08-02T11:26:00Z,00000200,00000000,0007.40,0005.60,0003.41,0001.46,0000.92,0000.35,0001.49,0001.35,0000.96,18.6,24.7,09.9,06.8,0674.3,31.0
2021-08-02T11:27:00Z,00000200,00000000,0007.62,0005.45,0003.40,0001.12,0000.63,0000.34,0001.57,0001.26,0000.93,18.6,24.8,09.7,06.7,0674.3,31.0
2021-08-02T11:28:00Z,00000200,00000000,0007.20,0005.07,0002.99,0000.48,0000.24,0000.52,0001.40,0001.51,0000.81,18.6,24.8,09.7,06.7,0674.3,31.0
2021-08-02T11:29:00Z,00000200,00000000,0006.36,0004.82,0002.79,0000.72,0000.80,0000.31,0001.41,0000.94,0000.83,18.7,24.8,09.5,06.6,0674.3,31.0
2021-08-02T11:30:00Z,00000200,00000000,0006.04,0004.43,0002.73,0001.05,0000.61,0000.44,0001.16,0001.12,0000.98,18.6,24.8,09.5,06.5,0674.4,31.0
2021-08-02T11:31:00Z,00000200,00000000,0005.32,0004.69,0002.57,0000.58,0000.77,0000.40,0001.44,0001.45,0001.00,18.7,24.8,09.4,06.5,0674.4,31.0
2021-08-02T11:32:00Z,00000200,00000000,0006.21,0004.05,0002.60,0000.59,0000.42,0000.46,0001.39,0001.10,0001.09,18.7,24.8,09.6,06.6,0674.4,31.0
2021-08-02T11:33:00Z,00000200,00000000,0005.41,0004.01,0002.75,0001.18,0000.37,0000.66,0001.54,0001.44,0000.79,18.7,24.8,09.6,06.6,0674.4,31.0
2021-08-02T11:34:00Z,00000200,00000000,0006.25,0004.32,0002.51,0001.04,0000.58,0000.41,0000.76,0000.58,0000.68,18.7,24.8,09.4,06.5,0674.4,31.0
2021-08-02T11:35:00Z,00000200,00000000,0006.54,0004.73,0002.22,0001.15,0000.75,0000.32,0001.19,0001.07,0000.33,18.7,24.8,09.2,06.3,0674.4,31.0
2021-08-02T11:36:00Z,00000200,00000000,0005.53,0004.20,0002.85,0001.13,0000.52,0000.58,0000.84,0000.83,0000.63,18.7,24.8,08.8,06.1,0674.4,31.0
2021-08-02T11:37:00Z,00000200,00000000,0005.55,0004.03,0002.51,0000.84,0000.87,0000.79,0001.27,0001.41,0001.07,18.7,24.8,08.6,05.9,0674.4,31.0
2021-08-02T11:38:00Z,00000200,00000000,0005.33,0004.14,0002.18,0000.94,0000.67,0000.41,0001.45,0000.74,0000.64,18.7,24.8,08.5,05.8,0674.4,31.0
2021-08-02T11:39:00Z,00000200,00000000,0005.33,0004.03,0002.08,0000.32,0000.77,0000.49,0001.24,0001.34,0001.24,18.7,24.8,08.4,05.8,0674.4,31.0
2021-08-02T11:40:00Z,00000200,00000000,0005.59,0004.06,0002.39,0001.24,0000.72,0000.55,0001.08,0000.85,0000.61,18.8,24.8,08.2,05.6,0674.4,31.0
2021-08-02T11:41:00Z,00000200,00000000,0005.07,0003.61,0002.49,0000.74,0000.35,0000.52,0001.26,0000.93,0000.62,18.8,24.8,08.1,05.6,0674.4,31.0
2021-08-02T11:42:00Z,00000200,00000000,0005.37,0004.23,0002.61,0000.57,0000.88,0000.55,0000.95,0000.52,0000.54,18.8,24.9,07.9,05.4,0674.4,31.0
2021-08-02T11:43:00Z,00000200,00000000,0004.74,0004.07,0002.38,0000.97,0000.58,0000.20,0001.02,0001.28,0000.76,18.8,24.9,07.7,05.3,0674.4,31.0
2021-08-02T11:44:00Z,00000200,00000000,0004.70,0004.00,0002.14,0001.26,0000.50,0000.35,0001.05,0001.16,0000.73,18.8,24.9,07.6,05.2,0674.4,31.0
2021-08-02T11:45:00Z,00000200,00000000,0004.59,0003.64,0002.48,0001.32,0000.38,0000.40,0000.90,0000.79,0000.44,18.8,24.9,07.5,05.1,0674.4,31.0
2021-08-02T11:46:00Z,00000200,00000000,0005.81,0004.26,0002.85,0001.11,0000.75,0000.24,0001.07,0000.74,0001.01,18.8,24.9,07.3,05.0,0674.4,31.0
2021-08-02T11:47:00Z,00000200,00000000,0005.81,0004.14,0002.37,0000.44,0000.57,0000.47,0001.30,0000.82,0000.49,18.8,24.9,07.1,04.9,0674.4,31.0
2021-08-02T11:48:00Z,00000200,00000000,0004.74,0003.83,0002.45,0000.61,0000.76,0000.39,0000.23,0000.58,0000.30,18.8,24.9,06.8,04.7,0674.4,31.0
2021-08-02T11:49:00Z,00000200,00000000,0006.06,0003.80,0002.63,0001.28,0000.40,0000.45,0001.11,0001.26,0000.19,18.8,24.9,06.5,04.5,0674.4,31.0
2021-08-02T11:50:00Z,00000200,00000000,0004.73,0004.18,0002.10,0001.12,0000.56,0000.25,0001.00,0000.35,0000.64,18.9,24.9,06.2,04.3,0674.4,31.0
2021-08-02T11:51:00Z,00000200,00000000,0005.79,0003.91,0002.25,0000.82,0000.60,0000.21,0000.83,0001.16,0000.58,18.9,24.9,06.0,04.1,0674.4,31.0
2021-08-02T11:52:00Z,00000200,00000000,0005.02,0004.07,0002.18,0000.85,0000.64,0000.01,0001.10,0000.74,0000.78,18.9,24.9,05.9,04.1,0674.3,31.0
2021-08-02T11:53:00Z,00000200,00000000,0005.79,0003.81,0002.58,0000.28,0000.19,0000.37,0001.21,0001.37,0000.71,18.9,24.9,05.8,04.0,0674.3,31.0
2021-08-02T11:54:00Z,00000200,00000000,0004.62,0003.97,0002.47,0000.90,0000.74,0000.15,0001.47,0001.00,0000.86,18.9,24.9,05.7,04.0,0674.3,31.0
2021-08-02T11:55:00Z,00000200,00000000,0005.80,0004.23,0002.42,0001.17,0000.67,0000.33,0001.30,0001.01,0000.95,18.9,25.0,05.7,04.0,0674.3,31.0
2021-08-02T11:56:00Z,00000200,00000000,0006.34,0004.35,0002.73,0001.00,0000.62,-000.07,0001.14,0001.56,0001.15,18.9,25.0,05.7,04.0,0674.3,31.0
2021-08-02T11:57:00Z,00000200,40000000,,,,,,,0001.92,0001.81,0001.90,19.0,25.0,05.3,03.7,0674.3,31.0
2021-08-02T11:58:00Z,00000200,60000000,,,,,,,-000.67,-000.71,-000.72,18.8,25.1,06.6,04.5,0673.3,31.0
2021-08-02T11:59:00Z,00000200,20000000,,,,,,,-000.36,-000.66,-000.15,18.8,25.2,06.4,04.3,0673.3,31.0
